Vorticity
nan nan nan nan nan nan nan nan nan nan nan nan nan nan nan nan nan nan nan nan nan nan nan nan nan nan nan nan nan nan nan nan nan nan nan nan nan nan nan nan nan nan nan nan
nan 5 4 9 3 -1 5 7 5 9 16 9 8 13 18 8 4 5 4 -0 8 12 9 9 8 7 9 7 5 6 7 8 5 7 5 8 8 9 10 9 12 11 7 nan
nan -1 5 10 13 12 1 4 9 17 20 2 2 8 17 10 7 8 6 7 18 13 2 7 11 9 8 7 5 6 7 7 6 5 4 6 6 10 8 10 13 14 13 nan
nan 9 10 8 15 14 15 7 3 9 17 12 6 6 4 13 11 17 26 24 15 5 4 11 8 7 10 7 6 7 8 7 5 5 6 6 7 8 10 10 11 12 11 nan
nan 7 11 16 8 6 7 5 9 10 7 15 10 10 7 9 10 13 17 19 20 17 13 6 7 4 9 14 9 6 5 5 8 5 7 5 10 9 9 12 10 6 7 nan
nan 10 8 3 9 10 8 9 13 16 3 11 11 3 11 12 12 11 6 5 4 14 26 16 8 8 19 16 6 10 7 5 8 5 2 10 8 11 11 10 9 9 9 nan
nan 13 10 8 9 8 6 15 15 8 10 11 9 9 10 10 10 9 7 6 5 5 10 28 21 6 7 13 8 10 11 13 9 10 6 7 7 5 9 8 6 7 9 nan
nan 12 16 11 9 7 7 11 6 7 7 14 15 11 14 13 9 8 10 12 8 7 7 12 18 18 7 4 8 5 7 10 10 11 8 3 7 2 5 9 6 5 7 nan
nan 6 10 14 8 3 9 12 11 8 10 12 7 6 16 11 8 9 9 11 14 10 8 8 13 12 8 7 10 5 3 7 15 11 7 7 5 7 9 7 6 8 9 nan
nan 9 11 18 8 9 10 1 7 13 14 6 11 11 9 6 8 5 9 7 8 10 8 8 13 11 13 13 13 10 15 14 10 9 9 11 6 5 6 6 9 11 12 nan
nan 6 6 7 7 9 8 10 12 14 7 7 9 11 16 8 8 12 9 8 7 8 7 7 8 11 14 13 12 14 17 19 12 8 9 10 9 6 6 8 8 11 9 nan
nan 9 13 7 8 13 11 7 10 6 7 13 10 10 15 10 12 11 7 8 8 8 8 8 8 8 9 9 8 10 9 14 16 15 11 8 9 9 8 7 9 11 8 nan
nan 9 6 10 9 13 15 11 9 6 13 10 6 10 6 12 15 9 10 8 9 6 6 7 8 9 9 9 7 7 8 10 14 14 12 13 11 11 8 8 9 9 9 nan
nan 12 10 7 2 -0 1 5 9 12 7 11 3 6 11 14 10 10 13 12 8 6 5 6 7 7 8 7 6 7 9 10 14 17 14 8 8 8 8 9 10 9 10 nan
nan 8 6 6 7 7 10 10 9 9 5 7 11 16 14 7 7 8 6 9 16 16 10 9 8 7 7 8 7 7 8 8 11 18 17 10 8 6 11 14 12 10 11 nan
nan 9 11 10 8 6 9 9 11 10 14 15 17 17 9 6 7 7 9 10 13 18 14 10 9 8 9 9 8 7 8 9 10 12 12 15 16 14 11 10 11 10 9 nan
nan 11 12 9 8 9 11 11 7 15 20 17 12 11 8 8 10 10 9 11 11 13 14 8 7 11 13 10 9 10 9 9 10 11 11 12 13 13 13 10 9 10 9 nan
nan 11 10 10 9 12 11 7 12 18 13 11 15 15 11 8 7 9 8 5 4 8 13 14 12 12 11 10 10 10 9 10 8 8 8 9 10 10 10 11 9 9 11 nan
nan 8 12 14 8 5 11 9 16 14 8 11 10 9 8 8 9 7 8 5 6 7 11 18 16 10 11 12 10 8 9 9 10 9 8 9 9 11 9 9 10 10 10 nan
nan 16 8 6 9 12 9 15 15 7 8 8 9 7 8 9 10 9 8 5 9 13 15 17 12 9 9 10 10 9 9 9 10 10 11 10 9 10 10 9 10 10 11 nan
nan 14 10 9 11 10 13 17 12 9 8 4 9 7 8 11 10 7 6 11 13 13 12 14 11 9 10 11 8 8 10 10 10 11 12 11 10 8 8 8 9 10 11 nan
nan 11 11 11 9 11 11 10 16 16 12 9 7 7 6 7 10 10 8 9 14 11 13 13 10 12 8 9 10 11 9 11 12 12 9 9 9 8 10 12 10 10 10 nan
nan 14 13 14 12 12 10 8 11 15 12 13 10 9 11 11 8 9 11 6 10 13 13 10 10 10 13 13 8 10 10 11 10 9 9 10 11 10 11 11 8 10 10 nan
nan 11 9 7 13 13 11 11 13 14 10 9 9 9 11 13 12 12 9 6 13 15 14 12 8 7 12 11 9 9 11 10 10 9 10 10 10 11 9 8 10 9 8 nan
nan 7 12 8 8 10 10 9 6 7 9 9 8 9 9 11 14 15 9 12 12 11 10 10 7 8 11 10 10 10 10 12 10 8 10 10 10 11 9 9 9 6 8 nan
nan nan nan nan nan nan nan nan nan nan nan nan nan nan nan nan nan nan nan nan nan nan nan nan nan nan nan nan nan nan nan nan nan nan nan nan nan nan nan nan nan nan nan nan
CAPE
310 31 44 15 117 197 251 117 275 281 134 134 126 501 268 141 0 27 0 2 109 83 56 52 0 0 0 0 0 0 0 0 30 64 175 0 0 0 0 44 122 535 561 1057
173 205 247 44 81 8 82 59 29 93 78 257 78 90 351 30 1 4 31 90 109 266 295 233 16 0 0 0 0 0 0 115 18 14 0 0 0 0 0 20 202 844 1119 1422
84 70 96 215 299 298 191 81 26 2 413 316 211 94 59 118 81 139 73 347 255 169 106 301 177 10 28 2 0 0 0 229 31 36 0 0 9 16 123 78 703 1101 1492 1618
79 270 401 375 137 0 22 5 0 0 117 71 138 239 123 0 0 44 139 426 443 270 290 409 420 257 85 27 0 0 51 426 33 0 0 0 0 131 239 187 1424 1641 2106 2067
392 255 79 60 4 0 0 3 0 1 29 11 95 0 0 69 0 12 0 82 206 492 540 526 206 203 379 348 57 10 40 309 140 120 40 0 72 95 1650 2005 1944 1972 1705 1329
0 0 54 99 0 0 24 32 129 0 1 6 8 14 0 167 19 0 0 19 205 506 615 495 374 219 414 698 727 135 157 283 188 152 470 236 539 716 714 654 810 784 1004 669
0 14 45 40 0 0 0 0 5 0 35 36 11 7 3 0 0 0 0 7 442 412 108 532 469 408 546 1024 1095 885 940 412 395 335 206 460 366 247 140 56 9 36 74 133
23 46 92 65 0 0 0 0 0 3 2 0 5 0 9 0 0 0 0 4 432 220 234 634 828 809 601 1126 742 567 444 1446 861 636 287 339 91 1 205 30 0 0 18 70
131 92 77 77 0 0 0 0 0 0 0 0 0 0 0 0 0 0 0 0 104 442 432 488 1049 1011 1064 594 666 680 184 64 1464 1289 282 52 8 30 5 2 0 5 6 1
120 34 0 3 5 0 0 0 0 0 0 0 0 0 0 0 0 0 0 0 0 448 514 413 595 1039 890 725 192 233 1455 1852 1754 878 845 188 231 106 54 94 1 0 0 0
0 0 0 0 0 0 0 0 0 0 0 0 0 0 0 0 0 0 0 46 298 730 735 833 1081 1452 1458 1648 1469 1453 1403 1103 846 755 718 442 320 203 170 3 0 0 0 3
0 0 0 0 0 0 0 0 0 0 0 0 0 0 0 0 0 0 44 36 1101 1208 1080 1087 1066 1183 1361 1277 913 772 584 844 1449 1069 883 588 401 159 1 18 6 0 0 0
0 0 0 0 0 0 0 0 0 0 0 0 0 0 0 0 0 0 405 1535 1445 1321 1082 913 974 948 1016 812 685 314 196 387 623 1329 1022 591 128 27 18 24 4 0 13 83
0 0 0 0 0 0 0 0 0 0 0 0 0 0 0 23 74 87 350 1346 1491 1489 1256 848 786 1028 578 337 211 167 225 279 562 1146 1260 950 488 279 137 101 83 147 223 135
0 0 0 0 0 0 0 0 0 0 0 0 0 0 22 103 145 158 107 59 320 1599 1296 1060 956 971 697 396 149 185 254 354 582 1282 1555 1257 813 380 372 115 229 343 238 140
0 0 0 0 0 0 0 0 0 0 0 0 0 0 3 0 16 39 5 1 1 893 1328 1090 1084 1010 1087 490 286 208 235 359 485 850 771 812 527 614 449 184 91 25 41 3
0 0 0 0 0 0 0 0 0 0 0 0 0 0 9 10 19 80 512 475 414 332 1487 1282 1121 1117 918 595 379 242 188 235 313 348 245 164 134 82 32 23 1 1 1 3
0 0 0 0 0 0 0 0 0 1 0 0 0 6 29 12 245 327 205 131 67 51 70 900 1255 1235 909 600 450 173 102 79 173 180 77 7 3 2 2 2 1 1 1 1
0 0 0 0 0 0 0 0 1 0 14 34 2 12 79 6 4 223 238 224 150 125 9 138 1347 917 770 776 234 139 92 58 132 73 22 1 0 3 2 2 0 30 16 9
0 4 56 6 1 0 0 0 0 0 0 52 33 0 0 0 0 50 29 0 0 5 267 1070 1155 762 847 563 170 263 288 118 48 61 18 12 0 3 1 28 53 40 33 30
129 302 0 1 6 2 20 3 0 0 73 34 0 0 0 0 0 0 0 0 0 203 194 1338 1236 956 954 525 313 300 284 253 183 25 95 42 14 2 1 14 14 45 44 8
1 0 1 48 152 165 57 94 164 62 0 0 0 0 0 0 0 0 0 24 73 209 189 1327 1393 1104 1197 698 371 369 403 312 94 95 18 0 0 0 0 9 7 11 9 5
2 92 29 196 173 540 126 28 18 10 4 0 0 0 0 0 0 0 0 1 0 89 238 1128 976 940 755 951 725 599 467 195 99 89 64 59 76 47 117 76 4 5 6 2
0 0 0 0 92 252 289 330 141 4 0 0 0 0 0 0 0 0 0 30 32 615 817 220 151 125 174 996 782 631 587 645 428 180 207 196 11 14 8 5 3 0 0 0
0 0 0 0 16 0 3 3 0 0 0 0 0 7 6 40 54 26 21 186 907 892 474 116 0 0 0 931 739 600 652 660 642 387 172 60 1 0 0 0 0 0 0 0
0 0 0 0 0 14 0 0 0 0 0 8 0 0 0 2 8 102 77 615 485 519 611 717 620 0 0 905 916 781 810 631 282 111 27 0 0 0 0 0 0 0 0 0